SCP
1 1 1 1 2 2 3 2 2 1 1 1 1 1 1 1 1 1 1 0 0 0 0 0 0 0 0 1 1 1 0 0 0 0 0 0 1 1
1 1 1 2 2 2 3 2 2 1 1 1 1 1 1 1 1 1 1 0 0 0 0 0 0 0 0 0 1 1 0 0 0 0 0 0 0 0
1 1 1 1 2 2 2 2 2 1 1 0 0 1 1 0 0 0 0 0 0 0 0 0 0 0 0 0 0 0 0 0 0 0 0 0 0 0
0 1 1 1 2 2 2 2 2 1 1 0 0 0 0 0 0 0 0 0 0 0 0 0 0 0 0 0 0 0 0 0 0 0 0 0 0 0
0 0 0 1 1 2 2 2 1 1 0 0 0 0 0 0 0 0 0 0 0 0 0 0 0 0 0 0 0 0 0 0 0 0 0 0 0 0
0 0 0 0 1 1 1 1 1 0 0 0 0 0 0 0 0 0 0 0 0 0 0 0 0 0 0 0 0 0 0 0 0 0 0 0 0 0
0 0 0 0 0 1 1 1 0 0 0 0 0 0 0 0 0 0 0 0 0 0 0 0 0 0 0 0 0 0 0 0 0 0 0 0 0 0
0 0 0 0 0 0 0 0 0 0 0 0 0 0 0 0 0 0 0 0 0 0 0 0 0 0 0 0 0 0 0 0 0 0 0 0 0 0
0 0 0 0 0 0 0 0 0 0 0 0 0 0 0 0 0 0 0 0 0 0 0 0 0 0 0 0 0 0 0 0 0 0 0 0 0 0
0 0 0 0 0 0 0 0 0 0 0 0 0 0 0 0 0 0 0 0 0 0 0 0 0 0 0 0 0 0 0 0 0 0 0 0 0 0
0 0 0 0 0 0 0 0 0 0 0 0 0 0 0 0 0 0 0 0 0 0 0 0 0 0 0 0 0 0 0 0 0 0 0 0 0 0
0 0 0 0 0 0 0 0 0 0 0 0 0 0 0 0 0 0 0 0 0 0 0 0 0 0 0 0 0 0 0 0 0 0 0 0 0 0
0 0 0 0 0 0 0 0 0 0 0 0 0 0 0 0 0 0 0 0 0 0 0 0 0 0 0 0 0 0 0 0 0 0 0 0 0 0
0 0 0 0 0 0 0 0 0 0 0 0 0 0 0 0 0 0 0 1 0 0 0 0 0 0 0 0 0 0 0 0 0 0 0 0 0 0
0 0 0 0 0 0 0 0 0 0 0 0 0 0 0 0 0 0 0 0 0 0 0 0 1 1 0 0 0 0 0 0 0 0 0 0 0 0
0 0 0 0 0 0 0 0 0 0 0 0 0 0 0 0 0 0 0 0 0 0 0 0 1 1 1 0 0 0 0 0 0 0 1 1 1 1
0 0 0 0 0 0 0 0 0 0 0 0 0 0 0 0 0 0 0 0 0 0 0 0 0 1 1 0 0 0 0 0 0 0 1 1 1 1
0 0 0 0 0 0 0 0 0 0 0 0 0 0 0 0 0 0 0 0 0 0 0 0 0 0 0 0 0 0 0 0 0 1 1 1 1 1
0 0 0 0 0 0 0 0 0 0 0 0 0 0 0 0 0 0 0 0 0 0 0 0 0 0 0 0 0 0 0 0 0 0 0 0 0 1
0 0 0 0 0 0 0 0 0 0 0 0 0 0 0 0 0 0 0 0 1 1 1 1 0 0 0 0 0 0 0 0 0 0 0 0 0 0
0 0 0 1 1 1 0 0 0 0 0 0 0 0 0 0 0 0 0 0 0 1 1 1 1 1 0 0 0 0 0 0 0 0 0 0 0 0
0 0 1 1 1 1 0 0 0 0 0 0 0 0 0 0 0 0 0 0 0 0 1 1 1 1 1 0 0 0 0 0 0 0 0 0 0 0
0 0 1 1 1 1 0 0 0 0 0 0 0 0 0 0 0 0 0 0 0 0 0 0 0 1 0 0 0 0 0 0 0 0 0 0 0 0
Wind_Speed
3 2 2 2 2 1 1 1 2 1 0 0 1 1 1 2 3 3 3 6 6 6 7 7 6 6 6 6 6 6 6 6 6 6 7 7 6 6
2 3 3 2 2 2 1 1 1 2 1 1 1 1 1 2 3 3 4 7 6 6 7 7 7 7 7 6 6 5 6 6 6 7 7 7 6 6
4 3 3 3 2 2 1 1 0 1 3 1 1 1 1 2 2 1 2 2 4 7 7 7 6 6 5 5 5 5 6 6 6 6 6 5 5 5
4 4 4 3 3 2 1 1 0 1 3 3 1 1 1 1 1 1 2 3 4 6 6 6 5 4 3 3 3 4 4 5 5 5 5 4 5 5
5 5 4 4 3 2 1 1 0 2 3 4 3 1 1 1 1 2 3 2 3 5 5 5 4 4 4 3 3 3 3 3 3 4 4 4 4 4
4 5 5 5 5 3 2 2 2 2 2 3 3 2 1 1 1 1 2 1 1 2 3 3 4 4 3 3 3 3 3 4 4 4 4 4 4 5
3 4 4 6 7 5 3 3 2 2 2 2 3 2 2 2 1 1 2 2 1 1 1 1 2 2 3 3 4 4 4 5 5 5 5 5 5 5
3 3 3 4 6 6 6 5 4 3 2 2 3 3 2 2 2 1 1 1 1 0 1 1 2 2 3 3 6 7 7 6 6 6 6 6 6 6
4 4 5 6 6 4 4 5 6 5 3 2 3 2 3 2 2 1 1 1 0 1 1 1 1 1 2 3 8 9 9 9 8 8 8 7 8 8
4 4 4 5 7 5 4 4 4 4 4 3 3 2 2 1 1 0 0 1 1 1 1 1 1 1 1 2 7 10 10 10 10 9 9 10 10 10
4 5 5 5 8 8 4 4 5 4 5 6 4 3 2 1 0 1 1 1 1 1 1 0 1 1 1 2 4 10 10 11 11 11 11 12 12 10
3 4 7 7 7 8 4 4 4 3 3 2 2 1 2 2 3 2 1 0 1 1 0 0 1 1 1 2 2 3 5 9 12 13 13 14 13 7
3 3 4 6 6 6 4 3 2 1 1 1 1 1 2 2 2 2 2 1 1 1 1 0 1 1 1 2 2 3 4 4 5 7 12 14 14 10
3 3 2 3 4 4 3 3 3 3 2 1 0 0 1 1 1 1 2 1 2 2 2 1 1 2 2 3 3 3 3 4 4 5 5 9 12 15
2 3 3 3 4 3 4 5 4 2 1 1 1 1 0 0 1 1 2 2 3 4 4 4 4 3 3 3 4 3 3 4 4 5 5 5 5 5
2 3 5 5 4 4 4 3 3 1 1 1 0 0 1 1 2 2 2 2 2 3 4 5 5 5 4 5 4 5 4 4 4 4 4 4 5 5
4 3 3 3 3 3 3 2 2 2 1 1 1 2 2 2 2 2 2 2 2 3 3 3 5 5 6 5 4 5 5 5 4 4 4 4 5 6
4 4 4 3 1 1 1 1 1 1 1 1 1 1 2 2 2 2 3 3 3 3 2 3 3 3 3 4 6 6 5 5 5 4 4 5 6 5
3 4 4 3 2 1 1 0 0 1 1 1 1 1 2 2 2 2 2 2 2 3 3 3 3 2 3 5 5 5 5 5 4 4 5 5 6 5
5 5 4 2 1 1 1 0 1 1 1 1 1 2 2 3 3 3 3 3 3 3 4 3 3 3 4 5 5 5 8 6 5 5 6 5 5 7
4 3 3 2 1 1 1 1 1 1 1 2 2 2 2 3 3 3 3 4 4 4 4 4 4 6 4 3 4 5 5 8 7 5 5 5 5 5
3 2 2 1 2 2 2 2 2 2 2 2 3 2 3 3 4 4 4 4 4 4 4 4 4 3 3 4 6 7 6 5 6 10 10 8 4 4
3 3 3 3 2 3 2 2 2 2 2 2 2 2 2 3 3 4 4 4 4 5 4 4 3 4 5 5 6 6 7 6 4 4 5 8 11 14
Wind_Direction
338 338 330 324 316 305 276 235 216 210 221 66 44 4 28 62 49 59 77 80 78 78 81 83 86 95 101 105 110 117 123 127 135 145 147 147 155 161
341 350 344 335 327 322 309 287 257 195 170 119 86 48 36 62 64 65 80 88 83 88 90 88 86 90 95 99 110 124 131 135 138 139 143 153 161 165
352 353 345 343 340 330 327 307 298 138 142 130 102 114 86 74 71 78 102 94 99 100 100 96 94 95 97 104 114 125 128 133 136 142 151 161 172 179
3 359 353 352 340 333 339 346 26 132 140 140 136 142 110 117 102 98 104 100 103 106 106 103 100 100 109 120 130 137 137 140 148 155 159 167 179 185
5 1 2 358 347 346 359 7 56 111 132 141 143 139 118 129 104 93 94 92 115 124 124 119 117 115 120 125 130 146 161 170 178 177 177 183 188 193
17 15 13 13 2 0 29 28 60 106 135 137 138 135 123 138 125 119 104 96 97 122 117 133 141 146 152 153 155 163 176 182 188 194 201 207 212 214
29 35 37 44 40 35 43 42 49 62 102 122 124 113 102 100 91 118 109 113 92 110 132 148 155 169 181 191 192 196 198 198 200 204 209 213 217 220
13 25 55 60 52 53 62 64 68 78 90 99 99 105 96 77 54 69 102 107 101 188 152 219 174 184 192 187 193 195 202 207 211 215 222 226 229 231
16 21 37 41 33 35 58 61 59 56 66 104 99 93 101 84 61 31 51 56 236 217 165 264 224 214 216 194 187 194 200 206 213 220 227 232 235 237
40 39 48 40 25 23 50 68 70 57 54 82 90 84 93 84 57 315 309 343 299 257 189 229 264 253 242 180 194 198 203 209 216 223 229 233 237 241
49 44 43 53 24 24 46 62 72 71 69 83 99 109 112 136 174 64 6 16 327 293 197 198 265 259 236 218 203 205 213 220 225 229 233 236 239 242
71 71 56 47 31 28 40 52 55 45 50 65 93 152 193 216 228 221 240 292 323 305 231 158 281 294 291 236 202 204 222 231 233 236 238 240 239 237
51 67 58 42 29 20 26 42 48 357 330 298 221 192 192 202 199 211 223 218 281 290 269 0 309 309 288 284 254 222 216 223 225 236 238 239 236 225
28 45 61 34 12 353 350 332 330 327 275 261 229 120 142 154 174 205 215 202 204 223 247 251 262 267 277 281 278 260 240 231 226 228 229 232 235 233
357 350 324 314 321 305 270 283 297 295 295 353 31 33 43 163 202 241 242 223 231 240 237 226 223 241 250 263 274 276 274 259 240 238 238 233 228 224
331 311 288 269 264 275 286 268 248 245 263 293 331 274 251 241 243 242 244 240 237 249 240 228 221 226 243 251 255 264 266 264 259 251 247 244 239 235
336 298 273 248 229 219 229 225 216 205 223 235 230 247 254 253 251 245 249 257 255 253 253 245 232 227 231 238 255 260 263 265 264 261 261 265 257 246
332 301 294 287 258 214 227 233 210 191 238 261 258 260 273 277 272 267 260 258 266 273 271 261 259 264 266 259 236 250 260 262 264 263 262 266 270 262
277 274 274 282 290 281 240 241 325 302 275 276 282 284 282 277 277 278 277 273 274 274 273 269 266 272 288 290 280 243 246 259 264 264 259 256 265 269
241 252 253 251 253 279 316 326 275 263 264 265 275 282 288 292 289 287 284 279 277 275 275 270 260 251 254 268 276 270 247 245 253 262 266 264 264 270
251 244 250 260 276 261 243 250 256 260 269 279 271 270 277 281 289 293 291 289 281 275 279 277 261 251 253 267 276 273 260 239 233 242 260 273 279 283
272 282 271 250 248 251 247 240 245 243 243 257 268 271 276 279 286 286 288 287 279 277 278 278 275 273 271 271 276 279 278 272 254 251 245 238 243 264
257 264 265 256 244 241 247 253 260 259 254 264 286 289 288 290 288 290 290 292 297 300 300 299 298 290 284 281 284 287 292 292 289 285 271 258 253 257